Regional Weather Roundup
Issued by NWS

Home | Current Version | Previous Version | Text Only | Print | Product List | Glossary Off
Versions: 1 2 3 4 5 6 7 8 9 10 11 12 13 14 15 16 17 18 19 20 21 22 23 24 25 26 27 28 29 30 31 32 33 34 35 36 37 38 39 40 41 42 43 44 45 46 47 48 49 50

000
ASUS43 KFSD 241010
RWRSD

WEATHER ROUNDUP FOR SOUTH DAKOTA
NATIONAL WEATHER SERVICE SIOUX FALLS SD
500 AM CDT MON APR 24 2017

NOTE: "FAIR" INDICATES FEW OR NO CLOUDS BELOW 12,000 FEET WITH NO
SIGNIFICANT WEATHER AND/OR OBSTRUCTIONS TO VISIBILITY.


SDZ001>005-009-010-012>017-241100-
NORTHWEST AND NORTH CENTRAL SOUTH DAKOTA

CITY           SKY/WX    TMP DP  RH WIND       PRES   REMARKS
BUFFALO          N/A     34  33  96 NE9       29.58R WCI  27
FAITH            N/A     32  32 100 N16       29.59R WCI  21
MOBRIDGE       CLOUDY    37  33  85 NE17G25   29.53F
$$

SDZ012>016-024>037-041>051-057-063-072>074-241100-
SOUTHWEST AND SOUTH CENTRAL SOUTH DAKOTA

CITY           SKY/WX    TMP DP  RH WIND       PRES   REMARKS
RAPID CTY ARPT CLOUDY    38  37  97 N15       29.59R
PIERRE         CLOUDY    40  37  89 NW3       29.53F
CUSTER         CLOUDY    46  37  71 NW7       29.59R
ELLSWORTH AFB  CLOUDY    39  39  99 N17       29.58
PHILIP         CLOUDY    39  37  92 N5        29.55S
PINE RIDGE     CLOUDY    41  39  93 W3        29.55F
SPEARFISH      FOG       39  39 100 NW6       29.64S VSB<1/4
WINNER         FAIR      55  36  48 S9        29.54R
$$

SDZ004>011-016>023-039-040-241100-
NORTHEAST SOUTH DAKOTA

CITY           SKY/WX    TMP DP  RH WIND       PRES   REMARKS
ABERDEEN       MOCLDY    40  36  86 NW7       29.58F
WATERTOWN      PTCLDY    50  36  58 S14       29.63F
BROOKINGS      CLOUDY    53  35  50 S17G24    29.67F
SISSETON         N/A     42  39  89 S3        29.63F
$$

SDZ017-020-022-023-036>040-048>070-241100-
SOUTHEAST SOUTH DAKOTA

CITY           SKY/WX    TMP DP  RH WIND       PRES   REMARKS
SIOUX FALLS    CLOUDY    55  35  47 S18       29.69S
HURON          CLOUDY    52  37  56 SE13G22   29.58F
CHAMBERLAIN    CLOUDY    56  38  50 SE8       29.56S
MITCHELL       CLOUDY    54  38  54 S16       29.61F
YANKTON        CLOUDY    55  32  41 S10G16    29.67S
$$

ABBREVIATIONS USED IN REMARKS
   TC - TEMPERATURE IN CELSIUS
  WCI - WIND CHILL INDEX
   HX - HEAT INDEX
  VSB - VISIBILITY





USA.gov is the U.S. government's official web portal to all federal, state and local government web resources and services.